Weather History for Columbia Owens, SC

Change the Weather History Date:

Sunday, February 17, 2013

  Actual Average Record
Temperature  
Mean Temperature 39 °F 50 °F  
Max Temperature 47 °F 61 °F 75 °F (2008)
Min Temperature 30 °F 39 °F 25 °F (2007)
Degree Days  
Heating Degree Days 26 15  
Month to date heating degree days 275 282  
Since 1 July heating degree days 1465 1774  
Cooling Degree Days 0 0  
Month to date cooling degree days 0 0  
Year to date cooling degree days 24 1  
Moisture  
Dew Point 14 °F    
Average Humidity 41    
Maximum Humidity 61    
Minimum Humidity 19    
Precipitation  
Precipitation 0.00 in 0.16 in 0.36 in (2008)
Month to date precipitation 2.86 2.03  
Year to date precipitation 4.28 5.66  
Sea Level Pressure  
Sea Level Pressure 30.20 in    
Wind  
Wind Speed 7 mph (WNW)    
Max Wind Speed 18 mph    
Max Gust Speed 25 mph    
Visibility 10 miles    
Events      
T = Trace of Precipitation, MM = Missing Value Source: NWS Daily Summary

Daily Weather History Graph

Daily Weather History Graph

Search for Another Location

Airport:

Trip Planner

Search our weather history database for the weather conditions in past years. The results will help you decide how hot, cold, wet, or windy it might be!

Date:

Astronomy

Feb. 17, 2013 Rise Set
Actual Time 7:06 AM EST 6:10 PM EST
Civil Twilight 6:40 AM EST 6:35 PM EST
Nautical Twilight 6:11 AM EST 7:04 PM EST
Astronomical Twilight 5:42 AM EST 7:33 PM EST
Moon 11:19 AM EST (2/17) 12:43 AM EST (2/17)
Length of Visible Light 11h 54m
Length of Day
11h 03m
Waxing Crescent, 49% of the Moon is Illuminated
Feb 17
Waxing Crescent
Feb 17
First Quarter
Feb 25
Full
Mar 4
Last Quarter
Mar 11
New

Hourly Weather History & Observations

Time (EST) Temp. Windchill Dew Point Humidity Pressure Visibility Wind Dir Wind Speed Gust Speed Precip Events Conditions
12:53 AM 33.1 °F 30.0 °F 21.0 °F 61% 30.08 in 10.0 mi NNW 3.5 mph - N/A   Clear
1:53 AM 33.1 °F 26.9 °F 19.0 °F 56% 30.09 in 10.0 mi NW 6.9 mph - N/A   Clear
2:53 AM 33.1 °F 28.7 °F 19.0 °F 56% 30.10 in 10.0 mi WNW 4.6 mph - N/A   Clear
3:53 AM 32.0 °F 25.6 °F 18.0 °F 56% 30.11 in 10.0 mi WNW 6.9 mph - N/A   Clear
4:53 AM 30.9 °F 26.2 °F 18.0 °F 59% 30.12 in 10.0 mi WNW 4.6 mph - N/A   Clear
5:53 AM 30.0 °F 25.2 °F 17.1 °F 59% 30.15 in 10.0 mi West 4.6 mph - N/A   Clear
6:53 AM 30.9 °F 26.2 °F 15.1 °F 52% 30.18 in 10.0 mi WNW 4.6 mph - N/A   Clear
7:53 AM 30.9 °F 26.2 °F 14.0 °F 50% 30.20 in 10.0 mi WNW 4.6 mph - N/A   Clear
8:53 AM 34.0 °F 27.2 °F 12.9 °F 42% 30.23 in 10.0 mi WNW 8.1 mph - N/A   Clear
9:53 AM 36.0 °F 29.6 °F 8.1 °F 31% 30.24 in 10.0 mi WNW 8.1 mph - N/A   Clear
10:53 AM 37.9 °F 31.5 °F 9.0 °F 30% 30.25 in 10.0 mi NW 9.2 mph - N/A   Clear
11:53 AM 39.0 °F 31.8 °F 9.0 °F 29% 30.25 in 10.0 mi NW 11.5 mph 19.6 mph N/A   Clear
1:53 PM 43.0 °F 36.4 °F 8.1 °F 24% 30.21 in 10.0 mi WNW 12.7 mph 18.4 mph N/A   Clear
2:53 PM 45.0 °F 39.7 °F 9.0 °F 23% 30.20 in 10.0 mi West 10.4 mph 20.7 mph N/A   Clear
3:53 PM 46.9 °F - 9.0 °F 21% 30.19 in 10.0 mi NW 11.5 mph 18.4 mph N/A   Clear
4:53 PM 46.9 °F - 8.1 °F 21% 30.20 in 10.0 mi West 6.9 mph 18.4 mph N/A   Clear
5:53 PM 46.0 °F 41.4 °F 7.0 °F 20% 30.21 in 10.0 mi West 9.2 mph - N/A   Clear
6:53 PM 43.0 °F 40.3 °F 10.9 °F 27% 30.23 in 10.0 mi WSW 4.6 mph - N/A   Clear
7:53 PM 37.0 °F - 21.0 °F 52% 30.26 in 10.0 mi Calm Calm - N/A   Clear
8:53 PM 37.9 °F - 17.1 °F 43% 30.27 in 10.0 mi Calm Calm - N/A   Clear
9:53 PM 36.0 °F 32.1 °F 17.1 °F 46% 30.28 in 10.0 mi West 4.6 mph - N/A   Clear
10:53 PM 35.1 °F 32.2 °F 18.0 °F 50% 30.31 in 10.0 mi WSW 3.5 mph - N/A   Clear